Location: �perlecques
(50.8057°N, 2.1521°E)
Time: 13:32:07
(UTC+00:00)

MOS 1 Rocket - Pass Details

Date: 09 April 2020
Orbit: 615 x 830 km, 97.4° (Epoch: 24 May)

Event Time Altitude Azimuth Distance (km) Brightness Sun altitude
Rises 20:52:38 0° 9° (N) 3,339 7.3 -19.5°
Reaches altitude 10° 20:55:01 10° 5° (N) 2,421 6.6 -19.8°
Maximum altitude 21:00:14 51° 291° (WNW) 1,037 4.5 -20.4°
Drops below altitude 10° 21:05:28 10° 217° (SW) 2,432 6.0 -21.0°
Sets 21:07:52 0° 212° (SSW) 3,354 6.7 -21.3°
